Regional Weather Roundup
Issued by NWS Tiyan, Guam

Home | Current Version | Previous Version | Text Only | Print | Product List | Glossary On
Versions: 1 2 3 4 5 6 7 8 9 10 11 12 13 14 15 16 17 18 19 20 21 22 23 24 25 26 27 28 29 30 31 32 33 34 35 36 37 38 39 40 41 42 43 44 45 46 47 48 49 50
000
ASGM40 PGUM 240912
RWRGUM
WEATHER ROUNDUP FOR THE MARIANAS
NATIONAL WEATHER SERVICE TIYAN GU
700 PM CHST FRI NOV 24 2017

GUZ001>004-241000-
MARIANA ISLANDS-

CITY           SKY/WX    TMP DP  RH WIND       PRES   REMARKS
GUAM AIRPORT   PTCLDY    81  79  94 E12       29.89R
ANDERSEN AFB   MOCLDY    79  75  89 E15       29.90R
ROTA AIRPORT   PTCLDY    81  73  78 E15       29.90R
TINIAN AP      PTCLDY    82  75  78 NE15      29.90R
SAIPAN AP      MOCLDY    82  75  78 E18G25    29.90R

$$




USA.gov is the U.S. government's official web portal to all federal, state and local government web resources and services.